Location: Cheyres
(46.8153°N, 6.7877°E)
Time: 17:12:55
(UTC+00:00)

Gbstr 26 Del rocket - Visible Passes

Search period start: 17 September 2021 00:00
Search period end: 27 September 2021 00:00
Orbit: 492 x 1263 km, 51.8° (Epoch: 16 September)

Date Brightness Start Highest point End Pass type
(mag) Time Alt. Az. Time Alt. Az. Time Alt. Az.
17 Sep 4.7 01:45:01 52° NW 01:46:40 62° N 01:53:59 10° ENE visible
17 Sep 4.6 03:27:31 12° WNW 03:34:55 69° NNE 03:41:41 10° E visible
17 Sep 5.6 23:57:43 33° ENE 23:57:43 33° ENE 00:01:33 10° ENE visible
18 Sep 4.7 01:40:15 52° NW 01:41:48 61° N 01:49:07 10° ENE visible
18 Sep 4.5 03:22:46 13° WNW 03:30:01 73° NNE 03:36:48 10° ESE visible
18 Sep 5.7 23:53:01 31° ENE 23:53:01 31° ENE 23:56:37 10° ENE visible
19 Sep 4.8 01:35:32 53° NW 01:36:57 60° N 01:44:16 10° E visible
19 Sep 4.4 03:18:04 14° WNW 03:25:07 79° NNE 03:31:56 10° ESE visible
19 Sep 5.9 23:48:24 29° ENE 23:48:24 29° ENE 23:51:42 10° ENE visible
20 Sep 4.8 01:30:56 55° NNW 01:32:05 61° N 01:39:25 10° E visible
20 Sep 4.3 03:13:28 15° WNW 03:20:11 85° NNE 03:27:02 10° ESE visible
20 Sep 6.0 23:43:55 25° ENE 23:43:55 25° ENE 23:46:47 10° ENE visible
21 Sep 4.7 01:26:27 59° NNW 01:27:14 62° N 01:34:34 10° E visible
21 Sep 4.2 03:09:00 18° WNW 03:15:15 88° SSW 03:22:06 10° ESE visible
21 Sep 6.2 23:39:37 21° ENE 23:39:37 21° ENE 23:41:52 10° ENE visible
22 Sep 4.7 01:22:10 63° N 01:22:22 63° N 01:29:44 10° E visible
22 Sep 4.2 03:04:43 22° WNW 03:10:16 80° SSW 03:17:08 10° SE visible
22 Sep 6.2 19:48:16 10° S 19:48:50 12° S 19:48:50 12° S visible
22 Sep 6.4 23:35:35 16° ENE 23:35:35 16° ENE 23:36:58 10° ENE visible
23 Sep 4.7 01:18:09 63° NE 01:18:09 63° NE 01:24:54 10° E visible
23 Sep 4.2 03:00:44 28° WNW 03:05:17 73° SSW 03:12:08 10° SE visible
23 Sep 5.3 04:45:54 10° WNW 04:51:36 24° SW 04:56:39 10° S visible
23 Sep 5.5 19:42:48 10° S 19:46:12 25° SSE 19:46:12 25° SSE visible
23 Sep 6.5 21:28:21 10° WSW 21:28:52 12° WSW 21:28:52 12° WSW visible
23 Sep 6.7 23:31:52 11° ENE 23:31:52 11° ENE 23:32:05 10° ENE visible
24 Sep 4.9 01:14:29 53° ENE 01:14:29 53° ENE 01:20:02 10° E visible
24 Sep 4.2 02:57:06 37° WNW 03:00:15 65° SW 03:07:04 10° SE visible
24 Sep 5.4 04:41:17 10° W 04:46:23 20° WSW 04:50:59 10° SSW visible
24 Sep 4.9 19:37:25 10° SSW 19:43:21 37° SE 19:43:21 37° SE visible
24 Sep 5.9 21:23:23 10° WSW 21:26:00 24° WSW 21:26:00 24° WSW visible
24 Sep7.023:28:33ENE23:28:33ENE23:08:38Wvisible
25 Sep 5.4 01:11:12 36° E 01:11:12 36° E 01:15:10 10° ESE visible
25 Sep 4.3 02:53:50 50° WSW 02:55:12 57° SW 03:01:58 10° SE visible
25 Sep 5.6 04:36:48 10° W 04:41:08 16° WSW 04:45:07 10° SSW visible
25 Sep 6.0 17:51:17 10° SE 17:53:22 11° ESE 17:55:31 10° E visible
25 Sep 4.7 19:32:06 10° SSW 19:39:03 44° SE 19:40:09 42° ESE visible
25 Sep 5.4 21:18:26 10° WSW 21:22:46 38° WSW 21:22:46 38° WSW visible
26 Sep 6.1 01:08:16 21° ESE 01:08:16 21° ESE 01:10:17 10° ESE visible
26 Sep 4.5 02:50:56 48° SSW 02:50:56 48° SSW 02:56:49 10° SSE visible
26 Sep 5.7 04:33:36 12° W 04:35:52 13° WSW 04:38:55 10° SW visible
26 Sep 5.8 17:44:31 10° SSE 17:48:05 14° ESE 17:51:50 10° E visible
26 Sep 4.6 19:26:52 10° SSW 19:33:56 51° SE 19:36:33 38° E visible
26 Sep 5.0 21:13:31 10° WSW 21:19:07 52° W 21:19:07 52° W visible
26 Sep 6.8 23:01:37 10° W 23:01:43 10° W 23:01:43 10° W visible
